Wind_Speed
36 37 33 35 38 37 37 38 39 37 40 43 38 40 37 37 37 34 32 34 34 36 36 36 36 35 35 36 38 38 39 39 37 36 36 38 38 37 37 40 41 42 43 44
40 41 37 41 42 41 40 41 40 41 39 39 37 36 35 33 35 35 34 32 33 33 32 34 36 38 39 38 38 39 40 39 39 39 40 40 40 41 42 42 43 45 47 47
41 40 37 37 38 38 36 35 36 38 36 39 43 42 35 37 35 35 38 37 35 36 33 32 32 34 34 36 38 39 41 43 44 43 41 41 42 44 46 48 50 51 51 52
35 30 34 34 33 35 34 38 38 39 42 42 41 48 41 42 43 42 41 40 40 39 39 40 39 38 40 41 42 43 42 43 45 48 48 45 45 45 45 47 50 53 55 54
36 34 32 33 35 36 37 38 40 42 44 48 44 47 48 48 49 46 45 45 43 43 43 45 44 45 42 42 42 43 41 41 43 47 50 50 48 48 49 51 50 51 54 58
37 39 37 37 39 39 41 41 43 44 45 49 44 47 51 51 48 47 49 49 46 45 45 45 47 47 48 48 48 48 48 45 45 46 48 50 54 55 56 56 57 59 58 60
40 39 39 39 39 39 40 41 43 46 47 48 49 52 51 49 50 50 49 48 47 49 50 50 50 50 50 50 52 53 52 51 50 49 55 55 55 60 62 63 64 65 65 65
40 39 39 41 40 41 42 40 40 44 47 49 52 55 55 52 50 46 47 47 47 49 52 53 53 55 56 58 60 59 60 59 58 59 57 63 69 68 67 69 70 72 72 71
41 40 37 39 39 39 42 44 46 50 50 52 55 56 54 51 51 51 51 50 51 52 54 55 56 59 60 62 63 64 64 64 63 65 68 68 73 75 75 75 76 80 81 79
42 42 43 45 46 47 46 47 48 50 51 53 52 51 53 51 51 52 53 52 53 55 57 58 59 61 62 63 64 65 66 66 70 73 68 74 76 73 73 75 73 77 83 83
44 46 47 49 46 45 46 46 48 48 51 53 54 55 56 54 54 55 56 56 56 58 59 61 62 64 65 66 67 69 70 70 75 74 75 78 81 77 77 76 78 78 81 82
43 45 49 49 49 46 45 47 48 51 54 55 57 56 56 57 58 58 58 60 63 63 64 65 66 68 70 72 74 76 77 80 79 81 82 84 83 82 86 87 90 90 89 91
44 48 48 50 49 47 47 47 49 54 55 58 61 62 57 59 60 61 62 65 66 66 66 68 70 71 73 75 76 78 79 81 82 83 85 87 88 88 88 89 90 90 90 89
49 50 51 51 52 56 53 52 56 59 61 62 63 64 60 62 63 65 66 66 67 68 70 72 73 74 76 78 80 82 85 86 86 88 88 89 90 91 92 94 95 96 97 99
56 57 58 60 58 57 56 53 62 63 63 67 62 64 62 60 63 66 65 66 68 70 72 73 74 76 78 81 83 84 86 88 89 90 90 90 91 92 92 93 94 95 96 98
58 60 59 57 59 61 62 56 63 64 63 64 63 67 58 64 66 67 69 70 72 73 74 75 77 78 80 82 84 85 86 86 86 85 84 82 81 80 79 79 80 82 85 87
58 58 59 58 61 66 68 60 60 63 65 66 67 65 66 65 68 70 71 72 73 74 77 78 80 81 83 85 86 86 84 83 80 77 73 70 68 68 67 68 68 69 70 72
56 57 61 65 67 72 65 60 62 65 65 66 67 67 67 69 71 73 74 75 75 77 78 80 81 82 81 80 78 75 73 70 68 68 67 66 65 66 67 69 71 73 73 74
58 60 65 67 69 71 64 61 63 67 65 66 68 68 71 71 71 70 73 75 76 78 79 79 80 78 74 69 64 62 62 63 64 63 63 65 67 70 72 74 74 75 74 74
58 62 63 65 69 70 61 61 62 64 67 63 67 69 69 71 73 73 78 78 78 78 77 76 72 65 59 57 57 59 60 61 62 63 64 66 69 71 72 74 74 73 73 71
58 60 60 60 66 69 59 61 62 67 62 65 67 70 72 74 76 76 77 78 76 72 67 60 55 53 53 54 56 57 58 60 61 63 65 67 68 69 70 71 71 69 67 68
59 58 60 61 66 70 61 66 66 64 67 69 71 73 76 76 77 77 76 74 70 62 54 50 50 50 51 52 55 56 57 58 60 62 63 65 67 70 69 68 66 65 61 57
58 55 58 63 66 67 70 68 68 69 71 73 74 75 76 77 76 75 70 64 56 51 49 49 50 51 51 51 52 54 55 56 59 60 62 64 67 66 64 64 60 50 47 46
55 57 62 65 64 66 70 68 69 70 70 70 71 74 73 73 70 66 57 53 50 48 48 50 51 51 51 52 53 54 56 56 58 60 62 64 62 60 62 56 46 41 43 42
56 60 62 69 69 69 70 69 69 70 69 67 65 65 64 63 60 53 50 49 47 47 48 50 51 52 53 55 55 55 56 57 60 61 60 59 57 57 55 42 41 42 41 39
57 61 69 70 66 68 71 71 70 69 65 62 61 60 56 53 49 47 47 47 47 48 49 50 52 54 56 57 57 57 57 58 58 57 55 55 52 52 44 37 36 41 39 39
Wind_Direction
282 282 283 279 280 281 281 281 283 284 285 286 288 288 290 290 291 293 290 287 286 287 288 289 289 288 287 286 287 284 281 278 275 273 272 270 267 265 263 265 268 266 265 263
278 278 277 276 278 280 280 282 285 284 283 286 286 286 284 285 286 289 291 290 288 285 281 280 280 283 286 285 282 281 282 281 278 275 271 267 266 266 265 264 263 264 266 266
271 275 273 274 275 280 282 282 280 284 283 287 288 288 288 290 292 287 290 292 293 292 290 288 288 287 283 280 279 279 277 277 277 275 272 268 265 263 265 266 265 264 263 264
271 267 272 275 277 279 279 279 279 281 284 284 283 286 288 289 288 293 298 295 294 295 297 297 297 296 294 291 290 289 285 280 278 276 274 270 268 264 264 264 264 264 265 263
272 273 272 275 276 278 278 280 282 283 284 284 288 289 293 295 297 300 300 302 304 303 302 301 300 299 296 293 292 289 284 281 277 276 276 276 273 269 265 266 267 267 266 262
276 280 281 279 280 280 281 283 283 283 283 282 286 285 287 291 297 297 297 296 295 296 295 294 293 293 294 293 291 289 287 282 279 274 267 269 271 271 270 266 266 266 264 260
278 279 279 278 278 279 279 281 282 282 283 284 285 284 285 290 290 289 290 290 292 293 292 292 292 291 289 286 285 283 279 275 273 267 257 254 261 265 266 266 266 264 264 265
273 272 272 273 275 277 279 279 279 281 281 284 285 286 289 290 288 286 286 287 287 288 288 288 285 284 283 282 280 278 276 275 274 268 262 258 256 261 261 262 263 262 260 262
274 272 274 273 275 276 279 281 278 276 277 278 280 280 283 282 281 281 282 282 282 282 282 282 282 281 280 280 278 277 276 275 273 271 268 267 258 257 258 258 261 262 265 265
274 276 279 281 282 281 280 278 278 278 278 276 280 284 283 282 279 279 281 280 282 282 281 281 281 280 279 277 276 277 277 275 275 274 270 267 270 264 264 266 268 266 265 265
272 277 283 283 287 283 284 285 282 277 275 276 280 286 284 281 280 279 280 280 280 278 277 278 279 277 276 277 278 278 277 276 277 274 269 268 273 270 263 266 269 267 268 266
279 281 280 282 281 283 285 284 281 279 279 275 273 284 281 280 279 279 278 277 276 276 278 278 278 276 276 277 278 279 279 279 277 274 270 273 273 269 266 268 268 268 268 269
285 281 283 282 283 284 283 283 281 274 270 269 268 281 281 275 274 275 274 274 277 280 280 279 280 280 281 281 281 282 283 282 282 280 278 277 276 274 272 272 273 272 272 270
286 282 283 284 283 284 281 280 279 272 272 272 276 274 276 274 272 274 276 280 282 283 285 286 286 286 286 286 286 285 284 284 284 283 282 281 279 277 276 275 273 271 270 268
280 279 280 284 278 272 272 277 274 270 271 270 275 273 273 273 275 277 281 281 283 285 286 286 286 286 286 286 286 286 286 286 285 284 283 281 280 279 278 278 277 276 275 272
276 276 275 271 270 270 271 276 270 273 276 277 277 275 277 273 275 277 279 282 284 285 286 287 288 287 288 288 288 287 286 285 284 283 282 282 283 283 283 282 281 280 279 278
273 272 269 269 268 267 268 278 274 273 274 276 275 278 278 279 280 281 283 284 284 286 288 289 290 291 292 291 289 287 286 285 285 286 286 287 286 286 286 286 286 285 283 282
269 269 270 269 267 265 275 273 272 271 271 273 276 278 280 281 283 285 289 291 292 292 292 293 293 292 290 287 285 284 285 287 287 287 288 290 290 290 291 291 291 289 288 286
268 267 267 266 268 270 271 276 275 272 273 277 281 283 284 287 287 289 289 289 291 292 293 293 291 289 287 284 284 284 283 284 285 287 288 289 290 291 293 293 292 291 290 289
265 266 268 272 272 274 277 276 277 279 278 281 281 284 286 288 289 291 292 294 294 294 293 291 290 287 284 284 284 284 285 287 288 289 290 290 291 291 292 293 293 294 293 292
265 266 269 273 273 275 281 281 279 278 288 281 284 286 287 288 290 292 293 294 295 293 292 287 284 283 283 283 283 284 285 287 288 289 290 291 292 293 295 295 296 297 298 298
267 269 271 274 276 280 280 280 282 285 285 286 287 287 289 291 292 293 293 293 293 291 286 284 283 283 282 282 283 284 287 289 290 291 293 295 296 296 299 299 301 302 302 301
270 274 273 271 275 280 283 283 284 285 287 288 289 289 290 291 292 292 294 294 291 286 285 284 284 284 284 284 286 288 289 291 292 294 295 295 296 300 300 303 305 305 304 306
269 271 271 275 279 280 280 285 287 287 287 287 287 288 289 289 291 292 292 288 285 283 284 284 285 287 287 288 289 290 292 294 295 295 295 296 299 301 302 305 303 304 304 309
271 273 280 276 276 278 279 283 284 284 284 285 285 285 286 288 291 291 287 285 283 283 284 286 287 288 288 289 290 291 293 294 295 294 295 298 300 301 303 301 300 301 305 310
276 279 275 277 278 278 280 280 281 284 283 283 282 284 286 288 289 285 283 283 284 284 285 286 286 287 288 290 292 294 294 293 293 293 296 299 301 300 298 295 296 304 309 312
Height
5814 5814 5816 5814 5811 5811 5811 5810 5808 5811 5809 5803 5808 5804 5805 5802 5801 5801 5802 5801 5800 5798 5796 5794 5792 5792 5791 5789 5787 5786 5786 5785 5785 5784 5783 5782 5780 5779 5778 5778 5778 5777 5777 5777
5806 5804 5807 5804 5803 5803 5801 5800 5801 5798 5798 5797 5796 5794 5794 5794 5792 5791 5790 5790 5790 5790 5789 5788 5786 5783 5782 5780 5779 5778 5776 5774 5773 5772 5771 5771 5770 5769 5768 5766 5765 5764 5764 5764
5794 5796 5795 5794 5794 5794 5793 5791 5790 5789 5789 5786 5784 5784 5786 5784 5785 5784 5782 5780 5778 5776 5775 5774 5774 5773 5772 5770 5769 5767 5766 5764 5763 5762 5760 5759 5758 5757 5756 5754 5753 5752 5752 5752
5785 5787 5784 5785 5785 5783 5784 5781 5781 5780 5777 5776 5776 5772 5775 5774 5772 5771 5770 5768 5767 5765 5762 5760 5759 5759 5759 5760 5759 5757 5755 5753 5751 5749 5747 5746 5744 5743 5742 5740 5739 5739 5739 5738
5776 5775 5776 5776 5775 5774 5774 5773 5772 5771 5768 5766 5768 5762 5760 5758 5756 5757 5755 5752 5749 5748 5748 5746 5745 5743 5743 5743 5743 5742 5742 5741 5739 5737 5734 5733 5731 5730 5727 5726 5725 5724 5724 5723
5765 5765 5766 5766 5766 5765 5763 5762 5760 5759 5758 5756 5758 5755 5753 5749 5748 5746 5744 5741 5739 5737 5735 5733 5732 5732 5731 5729 5728 5726 5725 5724 5723 5721 5719 5717 5715 5713 5712 5711 5710 5708 5706 5705
5756 5756 5755 5755 5754 5754 5753 5751 5749 5747 5746 5746 5745 5742 5742 5741 5738 5735 5731 5730 5727 5725 5723 5721 5720 5718 5717 5714 5713 5711 5709 5707 5705 5703 5702 5700 5699 5698 5695 5692 5691 5690 5689 5688
5744 5745 5744 5744 5743 5742 5740 5741 5740 5736 5735 5735 5732 5729 5730 5727 5725 5724 5720 5719 5716 5713 5711 5709 5707 5705 5702 5699 5695 5694 5691 5689 5688 5686 5684 5683 5680 5679 5677 5674 5671 5670 5669 5668
5730 5731 5731 5731 5731 5732 5731 5730 5729 5723 5725 5722 5721 5718 5719 5718 5715 5713 5710 5708 5704 5702 5699 5695 5692 5688 5685 5680 5678 5676 5673 5670 5668 5666 5664 5663 5661 5659 5657 5655 5653 5649 5647 5644
5718 5719 5718 5719 5719 5719 5718 5716 5713 5709 5707 5704 5707 5708 5704 5704 5701 5699 5697 5695 5691 5687 5684 5681 5677 5671 5667 5663 5659 5655 5653 5649 5647 5645 5643 5641 5640 5638 5635 5634 5632 5629 5626 5623
5709 5709 5710 5705 5706 5704 5702 5699 5697 5696 5692 5689 5690 5696 5691 5688 5686 5684 5681 5679 5676 5672 5669 5665 5661 5655 5651 5646 5642 5637 5635 5632 5629 5626 5624 5622 5619 5616 5614 5611 5610 5607 5605 5602
5696 5696 5695 5694 5691 5691 5690 5686 5683 5679 5678 5675 5671 5679 5677 5675 5670 5667 5666 5661 5657 5654 5652 5649 5645 5639 5634 5629 5624 5620 5616 5613 5609 5607 5605 5601 5599 5596 5593 5589 5587 5585 5582 5579
5680 5677 5678 5677 5679 5679 5675 5673 5669 5663 5663 5661 5658 5660 5665 5660 5654 5650 5647 5642 5639 5638 5633 5628 5625 5621 5615 5611 5606 5601 5596 5591 5587 5583 5578 5575 5573 5570 5568 5565 5562 5559 5557 5555
5662 5662 5662 5663 5661 5661 5660 5659 5651 5645 5643 5641 5645 5642 5648 5643 5636 5631 5628 5625 5620 5616 5613 5608 5604 5600 5595 5590 5585 5579 5572 5568 5563 5557 5553 5549 5545 5543 5539 5536 5533 5530 5528 5527
5648 5648 5647 5646 5645 5643 5644 5646 5631 5627 5628 5620 5632 5621 5631 5625 5616 5615 5612 5607 5602 5597 5593 5589 5585 5580 5574 5568 5561 5554 5546 5541 5537 5532 5526 5521 5518 5514 5510 5507 5503 5500 5497 5495
5633 5630 5630 5629 5626 5624 5623 5629 5620 5616 5615 5606 5605 5602 5610 5604 5601 5598 5595 5591 5587 5581 5576 5570 5564 5559 5553 5546 5539 5532 5524 5517 5512 5507 5503 5499 5495 5490 5485 5481 5477 5473 5470 5467
5615 5613 5612 5610 5610 5604 5602 5614 5609 5603 5600 5593 5585 5589 5585 5584 5580 5578 5574 5571 5567 5562 5556 5549 5543 5537 5530 5521 5513 5505 5499 5493 5488 5485 5481 5477 5473 5469 5464 5460 5456 5452 5449 5445
5598 5596 5594 5590 5590 5579 5595 5595 5590 5585 5583 5577 5573 5568 5566 5564 5562 5559 5553 5546 5542 5537 5531 5525 5520 5514 5506 5499 5491 5484 5479 5474 5470 5466 5461 5457 5453 5449 5445 5441 5435 5430 5426 5422
5582 5579 5574 5570 5569 5566 5576 5579 5571 5562 5566 5562 5554 5549 5545 5544 5541 5542 5532 5528 5524 5518 5510 5503 5497 5490 5484 5478 5473 5469 5464 5459 5455 5451 5447 5441 5436 5431 5425 5420 5414 5408 5403 5398
5567 5562 5558 5553 5548 5545 5560 5556 5550 5543 5539 5547 5536 5532 5528 5525 5523 5522 5509 5506 5501 5495 5488 5481 5476 5470 5465 5462 5457 5453 5448 5444 5440 5436 5430 5424 5419 5413 5406 5399 5392 5386 5378 5373
5551 5547 5543 5540 5527 5526 5542 5534 5531 5525 5532 5519 5519 5514 5510 5507 5504 5500 5493 5484 5479 5474 5468 5463 5458 5454 5450 5447 5443 5438 5434 5430 5425 5419 5413 5406 5400 5394 5387 5380 5372 5365 5358 5350
5534 5532 5529 5524 5515 5509 5522 5509 5510 5510 5501 5498 5498 5496 5489 5487 5484 5478 5473 5467 5461 5454 5451 5447 5443 5440 5436 5432 5428 5424 5420 5416 5410 5403 5396 5389 5382 5373 5367 5360 5353 5345 5337 5331
5515 5521 5514 5510 5502 5500 5494 5489 5489 5487 5481 5478 5475 5474 5468 5464 5463 5458 5454 5449 5444 5439 5435 5431 5428 5424 5421 5418 5414 5410 5405 5400 5394 5387 5380 5373 5365 5357 5349 5343 5336 5329 5322 5316
5503 5501 5497 5492 5493 5486 5472 5471 5468 5464 5461 5457 5452 5451 5449 5444 5443 5440 5437 5433 5430 5426 5422 5417 5412 5408 5405 5402 5397 5393 5389 5383 5377 5371 5364 5357 5350 5343 5335 5328 5321 5317 5310 5305
5489 5486 5489 5472 5471 5464 5461 5458 5452 5445 5440 5437 5434 5430 5429 5426 5426 5423 5421 5418 5414 5411 5407 5402 5398 5393 5388 5384 5380 5377 5372 5366 5360 5355 5348 5342 5336 5329 5323 5317 5310 5306 5300 5293
5479 5475 5459 5449 5451 5443 5444 5442 5435 5428 5424 5420 5416 5415 5414 5412 5411 5409 5406 5403 5400 5396 5392 5388 5383 5379 5373 5368 5363 5358 5354 5349 5344 5339 5334 5328 5322 5315 5310 5306 5303 5295 5290 5283